TimeCDT,TemperatureF,Dew PointF,Humidity,Sea Level PressureIn,VisibilityMPH,Wind Direction,Wind SpeedMPH,Gust SpeedMPH,PrecipitationIn,Events,Conditions,WindDirDegrees,DateUTC
12:50 AM,55.4,48.2,77,30.18,10.0,North,17.3,25.3,N/A,,Overcast,360,2012-10-27 05:50:00
1:50 AM,55.4,50.0,82,30.17,10.0,North,19.6,-,N/A,,Mostly Cloudy,10,2012-10-27 06:50:00
2:50 AM,55.4,48.2,77,30.16,10.0,North,17.3,-,N/A,,Mostly Cloudy,10,2012-10-27 07:50:00
3:50 AM,55.4,48.2,77,30.15,10.0,North,17.3,-,N/A,,Mostly Cloudy,10,2012-10-27 08:50:00
4:50 AM,53.6,44.6,72,30.15,10.0,North,15.0,-,N/A,,Mostly Cloudy,350,2012-10-27 09:50:00
5:50 AM,53.6,44.6,72,30.17,10.0,North,13.8,-,N/A,,Scattered Clouds,360,2012-10-27 10:50:00
6:50 AM,51.8,44.6,76,30.18,10.0,North,12.7,-,N/A,,Scattered Clouds,350,2012-10-27 11:50:00
7:50 AM,51.8,44.6,76,30.20,10.0,NNW,11.5,-,N/A,,Mostly Cloudy,340,2012-10-27 12:50:00
8:50 AM,51.8,44.6,76,30.21,10.0,North,17.3,-,N/A,,Mostly Cloudy,350,2012-10-27 13:50:00
10:50 AM,53.6,44.6,72,30.22,10.0,North,17.3,-,N/A,,Partly Cloudy,360,2012-10-27 15:50:00
11:50 AM,57.2,44.6,63,30.20,10.0,North,18.4,-,N/A,,Partly Cloudy,350,2012-10-27 16:50:00
12:50 PM,59.0,37.4,45,30.18,10.0,NNW,11.5,-,N/A,,Clear,330,2012-10-27 17:50:00
1:50 PM,60.8,39.2,45,30.12,10.0,NNW,11.5,-,N/A,,Clear,340,2012-10-27 18:50:00
2:50 PM,64.4,39.2,40,30.10,10.0,NNW,15.0,-,N/A,,Clear,340,2012-10-27 19:50:00
3:50 PM,64.4,37.4,37,30.08,10.0,NNW,12.7,-,N/A,,Clear,330,2012-10-27 20:50:00
4:50 PM,64.4,51.8,64,30.08,10.0,North,12.7,-,N/A,,Clear,350,2012-10-27 21:50:00
5:50 PM,64.4,37.4,37,30.08,10.0,NNW,12.7,-,N/A,,Clear,340,2012-10-27 22:50:00
6:50 PM,62.6,37.4,39,30.12,10.0,North,10.4,-,N/A,,Clear,350,2012-10-27 23:50:00
7:50 PM,60.8,35.6,39,30.13,10.0,North,9.2,-,N/A,,Clear,350,2012-10-28 00:50:00
8:50 PM,59.0,35.6,42,30.16,10.0,NNW,6.9,-,N/A,,Clear,340,2012-10-28 01:50:00
9:50 PM,57.2,35.6,44,30.17,10.0,North,11.5,-,N/A,,Clear,350,2012-10-28 02:50:00
10:50 PM,57.2,35.6,44,30.18,10.0,North,6.9,-,N/A,,Partly Cloudy,360,2012-10-28 03:50:00
11:50 PM,57.2,37.4,48,30.19,10.0,North,3.5,-,N/A,,Scattered Clouds,350,2012-10-28 04:50:00